Regional Weather Roundup
Issued by NWS

Home | Current Version | Previous Version | Text Only | Print | Product List | Glossary Off
Versions: 1 2 3 4 5 6 7 8 9 10 11 12 13 14 15 16 17 18 19 20 21 22 23 24 25 26 27 28 29 30 31 32 33 34 35 36 37 38 39 40 41 42 43 44 45 46 47 48 49 50

463
ASUS45 KSLC 220210
RWRUT

UTAH REGIONAL WEATHER ROUNDUP
NATIONAL WEATHER SERVICE SALT LAKE CITY UT
700 PM MST TUE NOV 21 2017

UTZ001>011-023>025-220300-

NORTHERN UTAH

CITY           SKY/WX    TMP DP  RH WIND       PRES   REMARKS
BRIGHAM CITY   CLOUDY    48  40  74 E5        30.36S
HILL AFB       CLOUDY    51  39  63 CALM      30.37R
LOGAN            N/A     49  41  74 NE5       30.36R
OGDEN          MOCLDY    51  39  63 CALM      30.36R
SALT LAKE CITY MOCLDY    53  43  68 CALM      30.36R
TOOELE VALLEY  CLOUDY    45  41  87 CALM      30.36S
WENDOVER       NOT AVBL
HEBER CITY       N/A     41  34  75 E6        30.38R
WEST JORDAN    MOCLDY    49  42  78 CALM      30.37S

$$

UTZ011>015-024>027-220300-

CENTRAL/NORTHEAST UTAH

CITY           SKY/WX    TMP DP  RH WIND       PRES   REMARKS
PROVO AIRPORT  CLEAR     45  37  73 E5        30.37R
MOAB/CANYONLAN CLEAR     40  10  29 CALM      30.34R
DELTA          CLEAR     45  27  49 E6        30.36S
PRICE          CLEAR     48  22  35 CALM      30.37R
RICHFIELD      CLEAR     45  36  70 CALM      30.41R
ROOSEVELT      CLOUDY    37  25  60 CALM      30.37R
VERNAL         CLOUDY    48  31  51 CALM      30.33F

$$

UTZ013>016-019>022-027-220300-

SOUTHERN UTAH

CITY           SKY/WX    TMP DP  RH WIND       PRES   REMARKS
BRYCE CANYON   PTCLDY    34  25  69 SW5       30.46R WCI  30
CEDAR CITY     PTCLDY    51  33  50 E5        30.36R
MILFORD        PTCLDY    46  30  53 N6        30.35R
ST GEORGE      PTCLDY    59  13  16 VRB3      30.26R
HANKSVILLE     CLEAR     45  12  26 CALM      30.36S
KANAB          CLEAR     54  28  37 NE6       30.37R
BLANDING         N/A     45  29  53 N5        30.43R

$$

REGIONAL REPORTS     COLORADO/ARIZONA

CITY           SKY/WX    TMP DP  RH WIND       PRES   REMARKS
CRAIG, CO      CLOUDY    34  30  85 W3        30.39R
GRAND JUNCTION CLOUDY    42  20  41 NE5       30.36R
RIFLE, CO      CLOUDY    38  33  82 S3        30.40R
MONTROSE, CO   CLOUDY    40  27  59 SE3       30.41R
CORTEZ, CO     CLEAR     49  30  48 CALM      30.36R
COLORADO CITY    N/A     46  23  39 SE5       30.34S
PAGE, AZ       MOCLDY    51  21  30 CALM      30.33R
GRAND CANYON   MOCLDY    44  20  38 CALM      30.40R
KINGMAN, AZ    MOCLDY    58  18  21 E8        30.24R
FLAGSTAFF, AZ  PTCLDY    49  27  42 E3        30.41R

$$

REGIONAL REPORTS    NEVADA/IDAHO/WYOMING

CITY           SKY/WX    TMP DP  RH WIND       PRES   REMARKS
LAS VEGAS, NV  CLOUDY    67  20  16 SE3       30.20R
ELY, NY        PTCLDY    44  32  62 S3        30.39R
ELKO, NV       CLOUDY    50  42  74 CALM      30.34R
POCATELLO, ID  LGT RAIN  44  43  96 CALM      30.35R
BURLEY, ID     CLOUDY    50  47  89 E3        30.30S
FORT BRIDGER,  MOCLDY    42  37  85 W6        30.44R
EVANSTON, WY   CLOUDY    42  37  82 W10       30.42R
ROCK SPRINGS,  CLOUDY    42  33  70 W14       30.38R
KEMMERER, WY   CLOUDY    37  34  87 W9        30.42R WCI  31

$$




USA.gov is the U.S. government's official web portal to all federal, state and local government web resources and services.